Starlink 31904

operational
NORAD ID: 59657 Int'l Des: 2024-084 Owner: SPXS Country: US Constellation: starlink
LEOCIRCULAR

关于 Starlink 31904

正在加载描述...

实时位置

正在加载3D地球...

即将过境

高度历史

Altitude vs Time

uPlot chart will show altitude changes over time

两行轨道根数

1 59657U 24084D 25305.01751503 .00000467 00000-0 26497-4 0 9996
2 59657 43.0035 48.5366 0001679 261.3428 98.7234 15.27574526 84694
Epoch: Nov 1, 2025 • Age: 36 hours

当前状态

高度 495.2 km
速度 7.62 km/s
星下点 -42.92°S, 79.2°E
发射日期 May 6, 2024
运行时间 1.4 years
类型 internet

技术详情

分类 Payload
质量 730.00 kg
干质量 700.00 kg
总质量 730.00 kg
长度 0.30 m
直径 4.10 m
跨度 29.00 m
形状 Box + pan
制造商 SPXS
平台类型 Starlink V2M
阶段状态 In Orbit
所有者/国家 SPXS/US

大型星座

Loading constellations...